Flag Weather past 2 weeks in Burg, Saxony-Anhalt, Germany

Now
48 °F

Passing clouds.


Feels Like: 48 °F
Forecast: 40 / 48 °F
Wind: 2 mph from Southeast

Location: Magdeburg

Current Time: Nov 23, 2014 at 5:14:41 PM

Latest Report: Nov 23, 2014 at 5:00 PM


Visibility: 13 mi

Pressure: 30.14 "Hg

Humidity: 83%

Dew point: 43 °F

Location of BurgLocation

Historic Weather in Burg — Graph

°F

Burg temperature yesterday

Maximum temperature yesterday: 46 °F (at 1:00 PM)
Minimum temperature yesterday: 39 °F (at 11:00 PM)
Average temperature yesterday: 42 °F

Past Weeks' High & Low Weather Summary

 TemperatureHumidityPressure
High56 °F (Nov 14, 3:00 PM)99% (Nov 10, 2:00 AM)30.38 "Hg (Nov 10, 2:00 AM)
Low37 °F (Nov 9, 3:00 AM)67% (Nov 8, 3:00 PM)29.53 "Hg (Nov 16, 2:00 PM)
Average45 °F91%29.95 "Hg
* Reported Nov 8 3:00 PM — Nov 23 3:00 PM, Burg, Weather by CustomWeather, © 2014

Note: Actual official high and low records may vary slightly from our data, if they occured in-between our weather recording intervals... More about our weather records

Advertising

Burg weather history for previous 24 hours

 ConditionsComfort  
Time TempWeatherWind HumidityBarometerVisibility
3:00 PM
Nov 23
50 °FPartly sunny.3 mph75%30.17 "Hg12 mi
2:00 PM51 °FPartly sunny.5 mph74%30.16 "Hg12 mi
1:00 PM52 °FScattered clouds.5 mph72%30.17 "Hg12 mi
12:00 PM50 °FPartly sunny.5 mph76%30.19 "Hg12 mi
11:00 AM47 °FPartly sunny.3 mph79%30.21 "Hg6 mi
10:00 AM42 °FFog.3 mph85%30.21 "Hg4 mi
9:00 AM39 °FFog.2 mph91%30.21 "Hg4 mi
8:00 AM38 °FFog.3 mph92%30.19 "Hg4 mi
7:00 AM38 °FFog.2 mph93%30.19 "Hg4 mi
6:00 AM38 °FFog.2 mph92%30.19 "Hg4 mi
5:00 AM38 °FFog.2 mph92%30.19 "Hg3 mi
3:00 AM38 °FFog.3 mph92%30.19 "Hg3 mi
2:00 AM38 °FFog.5 mph91%30.19 "Hg3 mi
1:00 AM38 °FFog.5 mph90%30.20 "Hg4 mi
12:00 AM38 °FFog.3 mph90%30.21 "Hg4 mi
11:00 PM
Nov 22
39 °FFog.3 mph88%30.21 "Hg4 mi
9:00 PM41 °FFog.2 mph84%30.21 "Hg4 mi
8:00 PM41 °FPassing clouds.2 mph83%30.21 "Hg6 mi
7:00 PM42 °FOvercast.3 mph81%30.20 "Hg9 mi
6:00 PM43 °FPassing clouds.3 mph79%30.22 "Hg9 mi
5:00 PM43 °FPassing clouds.2 mph79%30.21 "Hg10 mi
Weather by CustomWeather, © 2014

See weather overviewHow to use our weather pages